Date String (YYYY-MM-DD hh:mm:ss) UTC,Instrument flags,absolute air pressure of the measurement (hPa),sample flow rate (lpm),inlet stack bypass flow (lpm),air temperature of the measurement (°C),ambient temperature measured by the external sensor (°C),aerosol sample conditioner tube jacket temperature (°C),OPC LED temperature (°C),internal box temperature (°C),relative humidity of the measurement (%),span deviation,mass concentration of particles derived from Lorenz-Mie calculation of OPC scattering (μg/m³),mass concentration of particles derived from Lorenz-Mie calculation of OPC scattering (μg/m³),mass concentration of particles derived from Lorenz-Mie calculation of OPC scattering (μg/m³)
DateTimeUTC,F1_M11,P_M11,Q1_M11,Q2_M11,T1_M11,T2_M11,T3_M11,T4_M11,T5_M11,U1_M11,ZSPAN_M11,X0_M11,X2_M11,X1_M11
2023-10-26 16:00:00,SystemResetWarning,0824.4,5.00,000.00,028.6,027.3,000.0,037.0,030.2,20.9,-002.2,0011.15,0008.04,0007.69
2023-10-26 16:01:00,SystemResetWarning,0824.3,4.99,000.00,028.6,027.3,000.0,037.0,030.2,20.8,-002.1,0011.22,0008.09,0007.73
2023-10-26 16:02:00,SystemResetWarning,0824.4,4.99,000.00,028.6,027.3,000.0,037.0,030.2,20.8,-002.0,0011.38,0008.17,0007.78
2023-10-26 16:03:00,SystemResetWarning,0824.4,5.00,000.00,028.6,027.3,000.0,037.0,030.2,20.8,-001.8,0011.48,0008.23,0007.82
2023-10-26 16:04:00,SystemResetWarning,0824.4,5.00,000.00,028.6,027.3,000.0,037.0,030.2,20.8,-001.8,0011.67,0008.33,0007.86
2023-10-26 16:05:00,SystemResetWarning,0824.4,5.00,000.00,028.6,027.3,000.0,037.0,030.2,20.8,-001.9,0011.98,0008.41,0007.92
2023-10-26 16:06:00,SystemResetWarning,0824.3,5.00,000.00,028.6,027.3,000.0,037.0,030.2,20.9,-001.9,0012.20,0008.47,0007.97
2023-10-26 16:07:00,SystemResetWarning,0824.3,5.01,000.00,028.6,027.3,000.0,037.0,030.2,20.9,-001.8,0012.34,0008.55,0008.01
2023-10-26 16:08:00,SystemResetWarning,0824.1,5.00,000.00,028.6,027.3,000.0,037.0,030.2,20.9,-001.5,0012.43,0008.59,0008.03
2023-10-26 16:09:00,SystemResetWarning,0824.2,5.00,000.00,028.6,027.3,000.0,037.0,030.2,21.0,-001.4,0012.49,0008.62,0008.04
2023-10-26 16:10:00,SystemResetWarning,0824.2,5.00,000.00,028.6,027.3,000.0,037.0,030.2,21.0,-001.5,0012.38,0008.57,0008.02
2023-10-26 16:11:00,SystemResetWarning,0824.1,5.00,000.00,028.6,027.3,000.0,037.0,030.2,21.0,-001.7,0012.23,0008.48,0007.97
2023-10-26 16:12:00,SystemResetWarning,0824.2,5.00,000.00,028.6,027.3,000.0,037.0,030.2,21.1,-001.8,0012.25,0008.46,0007.96
2023-10-26 16:13:00,SystemResetWarning,0824.1,5.00,000.00,028.6,027.3,000.0,037.0,030.2,21.2,-001.9,0012.13,0008.41,0007.95
2023-10-26 16:14:00,SystemResetWarning,0824.2,5.00,000.00,028.6,027.3,000.0,037.0,030.3,21.3,-002.0,0012.10,0008.39,0007.94
2023-10-26 16:15:00,SystemResetWarning,0824.1,5.00,000.00,028.6,027.3,000.0,037.1,030.2,21.3,-001.9,0012.01,0008.37,0007.94
2023-10-26 16:16:00,SystemResetWarning,0824.1,5.00,000.00,028.6,027.3,000.0,037.1,030.3,21.3,-001.7,0011.79,0008.32,0007.91
2023-10-26 16:17:00,SystemResetWarning,0824.1,5.00,000.00,028.6,027.3,000.0,037.1,030.3,21.4,-001.8,0011.60,0008.32,0007.90
2023-10-26 16:18:00,SystemResetWarning,0824.2,5.00,000.00,028.6,027.3,000.0,037.1,030.3,21.4,-001.8,0011.50,0008.29,0007.88
2023-10-26 16:19:00,SystemResetWarning,0824.2,5.00,000.00,028.6,027.3,000.0,037.1,030.3,21.4,-001.8,0011.47,0008.27,0007.88
2023-10-26 16:20:00,SystemResetWarning,0824.1,5.00,000.00,028.7,027.3,000.0,037.1,030.3,21.5,-001.9,0011.49,0008.26,0007.88
2023-10-26 16:21:00,SystemResetWarning,0824.2,4.99,000.00,028.7,027.3,000.0,037.1,030.3,21.5,-001.8,0011.58,0008.29,0007.88
2023-10-26 16:22:00,SystemResetWarning,0824.2,5.00,000.00,028.7,027.3,000.0,037.1,030.3,21.5,-001.6,0012.41,0008.33,0007.91
2023-10-26 16:23:00,SystemResetWarning,0824.1,5.00,000.00,028.7,027.3,000.0,037.1,030.3,21.6,-001.6,0012.42,0008.34,0007.91
2023-10-26 16:24:00,SystemResetWarning,0824.1,5.01,000.00,028.7,027.3,000.0,037.1,030.3,21.6,-001.6,0012.48,0008.38,0007.91
2023-10-26 16:25:00,SystemResetWarning,0824.0,5.00,000.00,028.7,027.4,000.0,037.1,030.3,21.6,-001.5,0012.50,0008.37,0007.90
2023-10-26 16:26:00,SystemResetWarning,0824.1,5.00,000.00,028.7,027.4,000.0,037.1,030.3,21.7,-001.7,0012.44,0008.33,0007.87
2023-10-26 16:27:00,SystemResetWarning,0824.2,5.00,000.00,028.7,027.4,000.0,037.1,030.3,21.7,-001.9,0012.45,0008.34,0007.87
2023-10-26 16:28:00,SystemResetWarning,0824.1,5.00,000.00,028.7,027.4,000.0,037.1,030.3,21.7,-001.9,0012.57,0008.37,0007.87
2023-10-26 16:29:00,SystemResetWarning,0824.0,5.00,000.00,028.7,027.4,000.0,037.1,030.3,21.8,-001.9,0012.60,0008.38,0007.87
2023-10-26 16:30:00,SystemResetWarning,0824.0,4.99,000.00,028.7,027.4,000.0,037.1,030.3,21.8,-002.0,0012.56,0008.37,0007.86
2023-10-26 16:31:00,SystemResetWarning,0824.0,5.00,000.00,028.7,027.4,000.0,037.1,030.3,22.0,-001.8,0012.57,0008.37,0007.87
2023-10-26 16:32:00,SystemResetWarning,0824.0,5.00,000.00,028.7,027.4,000.0,037.1,030.3,22.3,-001.7,0013.42,0008.41,0007.88
2023-10-26 16:33:00,SystemResetWarning,0824.0,4.99,000.00,028.7,027.4,000.0,037.1,030.3,22.0,-001.7,0013.08,0008.37,0007.84
2023-10-26 16:34:00,SystemResetWarning,0824.0,5.00,000.00,028.7,027.4,000.0,037.1,030.3,21.9,-001.7,0013.05,0008.33,0007.79
2023-10-26 16:35:00,SystemResetWarning,0823.9,5.00,000.00,028.7,027.4,000.0,037.1,030.3,21.9,-001.7,0013.13,0008.21,0007.72
2023-10-26 16:36:00,SystemResetWarning,0823.9,5.00,000.00,028.7,027.4,000.0,037.1,030.3,21.9,-002.0,0012.90,0008.09,0007.63
2023-10-26 16:37:00,SystemResetWarning,0823.9,5.01,000.00,028.7,027.4,000.0,037.1,030.3,22.0,-002.0,0012.75,0007.97,0007.52
2023-10-26 16:38:00,SystemResetWarning,0824.0,5.00,000.00,028.7,027.4,000.0,037.1,030.3,21.9,-001.8,0012.52,0007.82,0007.41
2023-10-26 16:39:00,SystemResetWarning,0824.0,4.99,000.00,028.7,027.4,000.0,037.1,030.3,21.9,-001.7,0012.20,0007.63,0007.27
2023-10-26 16:40:00,SystemResetWarning,0824.0,5.00,000.00,028.7,027.4,000.0,037.1,030.3,21.8,-001.9,0011.96,0007.48,0007.14
2023-10-26 16:41:00,SystemResetWarning,0824.0,4.99,000.00,028.7,027.4,000.0,037.1,030.3,21.8,-001.9,0011.75,0007.36,0007.03
2023-10-26 16:42:00,SystemResetWarning,0824.0,5.01,000.00,028.7,027.4,000.0,037.1,030.3,21.8,-002.0,0011.61,0007.27,0006.94
2023-10-26 16:43:00,SystemResetWarning,0823.9,5.01,000.00,028.7,027.4,000.0,037.1,030.3,21.7,-002.2,0010.60,0007.13,0006.84
2023-10-26 16:44:00,SystemResetWarning,0823.9,5.01,000.00,028.7,027.3,000.0,037.1,030.3,21.6,-002.1,0010.10,0007.03,0006.79
2023-10-26 16:45:00,SystemResetWarning,0824.0,5.00,000.00,028.7,027.3,000.0,037.2,030.3,21.5,-002.2,0009.80,0006.97,0006.76
2023-10-26 16:46:00,SystemResetWarning,0824.0,4.99,000.00,028.7,027.3,000.0,037.2,030.3,21.4,-002.2,0009.52,0006.97,0006.75
2023-10-26 16:47:00,SystemResetWarning,0824.0,5.00,000.00,028.7,027.3,000.0,037.2,030.3,21.5,-002.3,0009.55,0006.99,0006.77
2023-10-26 16:48:00,SystemResetWarning,0823.9,5.00,000.00,028.7,027.2,000.0,037.1,030.2,21.4,-002.5,0009.61,0007.04,0006.83
2023-10-26 16:49:00,SystemResetWarning,0823.9,5.00,000.00,028.7,027.2,000.0,037.1,030.2,21.3,-002.5,0009.72,0007.13,0006.91
2023-10-26 16:50:00,SystemResetWarning,0823.9,4.99,000.00,028.7,027.2,000.0,037.1,030.2,21.2,-002.8,0009.98,0007.26,0006.98
2023-10-26 16:51:00,SystemResetWarning,0823.8,5.00,000.00,028.7,027.2,000.0,037.1,030.2,21.1,-002.5,0010.10,0007.35,0007.07
2023-10-26 16:52:00,SystemResetWarning,0823.8,5.00,000.00,028.7,027.2,000.0,037.1,030.2,21.0,-002.4,0010.26,0007.44,0007.14
2023-10-26 16:53:00,SystemResetWarning,0823.8,5.00,000.00,028.7,027.2,000.0,037.1,030.2,21.0,-002.2,0010.43,0007.49,0007.19
2023-10-26 16:54:00,SystemResetWarning,0823.9,5.00,000.00,028.7,027.2,000.0,037.1,030.3,21.1,-002.3,0010.56,0007.54,0007.25
2023-10-26 16:55:00,SystemResetWarning,0824.0,5.00,000.00,028.7,027.2,000.0,037.1,030.2,21.1,-002.2,0010.71,0007.63,0007.32
2023-10-26 16:56:00,SystemResetWarning,0823.9,5.01,000.00,028.6,027.2,000.0,037.1,030.2,21.1,-002.1,0010.81,0007.69,0007.38
2023-10-26 16:57:00,SystemResetWarning,0824.0,5.00,000.00,028.6,027.2,000.0,037.1,030.2,21.0,-002.2,0010.97,0007.76,0007.42
2023-10-26 16:58:00,SystemResetWarning,0824.0,5.00,000.00,028.6,027.2,000.0,037.1,030.2,21.1,-002.4,0011.03,0007.79,0007.44
2023-10-26 16:59:00,SystemResetWarning,0824.0,5.00,000.00,028.6,027.2,000.0,037.1,030.2,21.1,-002.3,0011.08,0007.81,0007.45
